Temperature
28 29 28 27 27 27 28 29 29 29 28 27 26 26 26 27 26 26 25 24 23 22 21 20 20 19 19 18 18 17 17 17 17 17 16 16 16 16 16 16 16 16 16 16
27 28 28 27 27 27 27 28 29 30 29 29 28 27 27 27 26 25 24 24 23 22 21 20 20 19 19 18 18 18 17 17 17 16 16 16 16 16 16 16 16 16 16 15
25 27 27 26 27 27 27 28 29 28 29 28 27 26 26 26 25 24 24 23 22 21 21 20 19 19 19 18 18 18 17 17 16 16 16 16 16 16 16 16 16 15 15 15
25 25 24 27 29 29 28 29 29 29 28 28 27 26 25 24 24 24 23 22 22 21 20 20 19 19 18 18 18 17 17 17 16 16 16 16 16 16 16 15 15 15 15 15
24 24 25 27 28 28 28 27 27 27 27 26 26 25 24 24 23 23 22 22 21 20 20 19 19 19 18 18 17 17 17 16 16 16 16 15 15 15 15 15 14 14 14 14
23 23 23 26 27 28 27 25 25 25 24 24 25 24 23 22 21 21 20 20 20 19 19 19 18 18 18 17 17 16 16 16 16 16 15 15 15 14 14 14 13 13 13 13
22 22 24 25 26 26 24 23 23 23 23 22 22 22 20 20 19 19 19 18 18 18 18 17 17 17 17 16 16 16 16 15 15 15 14 14 14 13 13 13 13 13 12 12
22 22 23 24 24 23 22 22 22 22 21 21 20 19 19 18 17 17 17 17 17 17 16 16 16 16 16 15 15 15 15 14 14 14 13 13 13 13 13 13 13 12 12 11
21 21 22 21 21 21 21 21 21 21 20 20 19 18 17 16 16 15 15 15 15 15 15 15 15 15 15 14 14 14 13 13 13 13 13 12 12 12 12 12 12 11 11 10
21 21 21 20 20 20 20 19 19 19 19 19 18 17 16 15 15 14 14 14 14 14 14 13 13 13 13 13 13 13 12 12 12 12 11 11 11 11 11 11 11 10 10 9
20 20 20 19 19 19 18 18 18 18 18 17 16 16 15 14 13 13 13 13 13 13 12 12 12 12 12 12 12 12 12 11 11 11 11 11 11 10 10 10 10 10 9 9
18 18 18 17 17 17 17 17 16 16 16 15 15 14 13 13 12 12 12 12 11 11 11 11 11 11 11 11 11 11 11 11 10 10 10 10 10 9 9 9 9 8 8 8
16 16 16 16 16 16 15 15 15 15 14 14 13 13 12 11 11 11 11 11 11 10 10 10 10 10 10 11 11 11 11 10 10 10 9 9 9 9 8 8 8 7 7 7
15 15 15 14 14 14 14 14 14 13 13 12 12 11 11 10 10 10 10 10 10 10 10 10 10 10 10 10 10 10 10 10 10 9 9 9 9 8 8 8 7 7 6 6
14 14 14 14 13 13 13 13 12 11 11 11 10 10 10 9 9 9 9 9 9 9 9 9 9 9 9 9 9 9 9 9 9 9 9 9 9 8 8 7 7 6 6 6
13 13 13 13 12 12 12 11 11 10 10 9 9 9 9 9 9 9 9 9 9 8 8 9 8 8 9 9 9 9 9 9 9 9 9 9 8 8 8 7 7 6 6 5
13 13 12 12 12 11 11 11 10 10 9 9 9 9 9 8 8 8 8 8 8 8 8 8 8 8 8 9 9 8 8 8 8 8 8 8 8 7 7 7 6 6 5 5
12 12 12 12 11 11 10 10 10 9 9 9 9 8 8 8 8 8 8 8 8 8 8 8 8 8 8 8 8 8 8 8 8 8 7 7 7 7 7 6 6 6 5 5
12 12 12 11 11 11 10 10 10 9 9 9 8 8 8 8 8 8 8 8 8 8 8 8 8 8 8 8 8 8 8 8 7 7 7 7 7 7 6 6 6 5 5 5
12 12 11 11 11 11 10 10 9 9 9 9 9 8 8 8 8 8 8 8 8 8 8 8 8 8 8 8 8 8 8 8 7 7 7 6 6 6 6 5 5 5 4 4
11 11 11 11 11 10 10 10 10 9 9 9 9 9 9 8 8 8 8 8 7 7 7 7 7 7 7 8 8 8 7 7 7 7 6 6 6 5 5 5 5 4 4 3
11 11 11 11 10 10 10 10 10 9 9 9 9 9 9 8 8 8 8 8 7 7 7 7 7 7 7 7 7 7 7 7 6 6 6 6 5 5 5 4 4 4 3 3
11 11 10 10 10 10 10 10 10 9 9 9 9 9 9 8 8 8 7 7 7 7 7 7 7 7 7 7 7 7 6 6 6 6 6 5 5 5 4 4 4 3 3 3
11 10 10 10 10 10 10 10 10 9 9 9 9 9 9 8 8 8 7 7 7 7 7 7 7 7 6 6 6 6 6 6 6 6 5 5 5 4 4 4 3 3 3 2
10 10 10 10 10 10 10 10 9 9 9 9 9 9 9 8 8 7 7 7 7 7 6 6 6 6 6 6 6 6 5 5 5 5 5 5 4 4 4 3 3 3 3 2
10 10 10 10 10 10 10 10 10 10 9 9 9 8 8 8 7 7 7 7 6 6 6 6 6 6 6 6 6 5 5 5 5 5 4 4 4 4 3 3 3 3 2 2
10 10 10 11 10 10 10 10 10 10 9 9 9 8 8 7 7 7 7 6 6 6 6 6 6 6 6 6 6 5 5 5 5 4 4 4 4 3 3 3 3 2 2 2
Wind_Speed
17 12 8 8 12 15 16 15 14 11 6 4 5 3 3 5 8 11 14 14 14 13 12 11 11 11 11 11 10 10 11 10 10 9 8 8 7 7 6 6 6 4 4 3
15 15 12 11 12 14 17 16 16 14 9 3 3 3 4 7 9 10 13 13 13 13 13 12 12 11 10 10 10 9 10 9 9 9 9 8 7 7 6 6 5 5 4 3
15 15 15 16 14 14 15 15 15 14 8 1 2 3 2 4 8 8 10 12 13 12 12 11 10 10 10 10 10 10 9 9 9 8 9 8 8 7 7 6 6 5 5 6
13 14 18 13 11 11 12 11 10 8 6 3 2 0 2 3 5 7 7 9 11 12 12 11 11 11 10 10 10 10 10 9 9 9 9 8 8 7 7 6 7 7 7 8
12 15 16 15 11 10 11 8 9 9 7 6 5 1 3 5 6 7 6 8 9 9 11 11 11 11 11 10 10 10 9 9 9 10 9 9 8 8 8 8 9 9 9 9
12 13 13 8 6 7 7 5 9 10 9 7 6 3 2 7 9 10 10 10 10 10 10 10 10 11 12 11 11 10 10 10 9 9 10 10 9 9 9 9 10 10 11 11
14 15 11 7 9 7 7 3 10 9 9 8 5 3 5 9 11 11 11 12 11 11 11 10 11 12 12 11 11 11 11 11 11 11 11 11 10 9 9 10 11 11 11 10
11 13 9 10 7 5 5 8 8 8 7 6 6 7 9 11 12 12 13 13 13 12 13 11 12 13 14 13 12 13 13 13 12 11 11 12 11 10 10 10 10 9 9 9
4 4 4 7 7 7 7 7 7 7 5 3 4 6 10 11 12 12 13 13 13 15 15 13 12 14 16 13 12 14 14 13 13 13 12 10 10 10 8 7 7 7 7 8
5 5 6 8 8 8 8 8 7 6 3 1 5 8 11 12 12 12 13 14 14 16 16 14 14 14 14 13 13 14 14 13 12 12 12 11 9 9 9 7 7 7 7 7
8 6 7 7 9 8 7 7 6 4 3 4 9 11 14 13 13 13 13 13 14 15 16 15 14 14 14 13 13 14 13 12 12 12 13 12 12 11 11 10 9 8 8 7
5 5 4 5 7 7 6 5 4 5 6 7 10 13 15 14 14 14 14 14 15 16 16 15 15 14 13 12 11 11 11 10 10 9 10 10 11 12 16 13 16 17 14 11
4 5 5 6 6 5 4 3 4 7 9 11 12 14 16 15 14 15 16 16 16 16 15 15 14 13 11 10 10 10 9 8 8 8 8 8 9 9 9 8 11 12 12 11
3 3 4 4 3 4 5 8 10 13 13 14 15 16 17 17 16 16 16 15 15 15 15 14 14 13 10 10 10 10 9 9 7 6 6 6 6 7 7 7 6 5 4 5
3 2 1 1 3 5 8 12 15 15 15 16 17 17 18 18 17 15 14 14 15 15 14 13 13 11 9 9 9 8 7 6 6 6 6 5 5 6 6 6 6 5 4 2
2 2 3 5 7 9 10 13 15 15 16 18 17 17 17 17 17 15 13 13 13 13 12 11 11 9 7 7 8 7 7 9 6 5 5 5 5 6 6 6 6 5 5 4
3 4 7 7 10 11 11 13 15 16 17 18 18 17 17 17 16 14 13 13 12 12 10 9 9 7 6 6 6 6 6 6 4 5 6 6 6 6 6 5 5 5 5 5
6 7 9 10 12 13 13 15 16 17 17 18 18 17 16 15 15 14 12 12 11 11 9 8 8 7 7 6 4 5 5 5 6 7 7 6 6 5 5 5 5 5 5 4
9 11 12 13 13 14 15 16 17 17 16 16 16 15 14 13 13 13 12 12 11 11 9 8 7 7 7 5 3 4 6 7 7 7 6 4 4 5 5 5 6 6 5 5
11 13 15 15 16 16 16 16 17 16 15 15 15 14 13 13 12 12 12 10 8 8 7 6 6 6 6 5 4 5 6 7 7 6 5 5 5 5 5 5 6 6 6 6
13 14 16 16 16 16 15 16 16 15 14 14 14 13 13 12 11 11 10 10 8 7 7 6 5 5 5 4 3 5 6 6 6 6 5 5 5 5 5 5 5 5 5 5
13 14 15 15 15 14 13 14 14 15 14 13 14 13 13 12 11 10 9 8 8 6 5 5 6 7 7 4 4 6 6 6 6 5 5 4 4 4 4 4 4 4 5 5
13 14 14 14 14 13 13 12 13 13 13 13 12 12 11 10 9 9 8 7 7 6 5 6 7 8 7 3 5 6 6 6 5 4 4 4 4 4 4 3 4 4 4 4
12 13 13 12 13 13 12 11 12 11 12 11 11 10 9 9 8 9 9 9 9 8 7 7 7 6 3 3 5 6 5 4 4 4 4 4 4 4 4 3 3 3 3 3
12 12 13 12 11 10 11 11 11 11 10 9 10 9 8 8 8 9 10 10 10 9 8 6 3 2 1 4 5 5 5 4 4 4 4 4 3 4 3 3 3 3 3 3
10 9 9 9 9 8 9 9 9 8 8 8 8 8 8 9 9 9 8 9 9 8 7 6 5 3 2 4 5 5 5 4 3 3 4 3 3 3 3 3 3 3 3 3
8 7 6 7 8 7 7 7 8 8 8 8 9 9 8 8 8 8 9 8 7 6 6 5 4 3 3 4 4 4 3 3 3 3 3 2 2 1 2 2 2 3 3 3
Wind_Direction
267 270 257 268 283 291 289 277 275 278 275 206 197 219 214 171 155 153 155 156 152 150 151 154 155 158 162 164 163 162 164 165 163 164 161 162 161 159 161 165 170 152 140 133
271 270 263 254 252 264 274 279 282 284 284 245 190 170 204 164 158 164 160 159 157 153 153 154 155 156 156 155 153 148 152 155 158 161 164 164 158 152 148 145 137 129 125 114
266 272 274 260 247 249 259 267 276 282 297 11 153 160 183 173 166 166 157 159 157 157 154 153 152 150 150 146 141 140 145 148 149 154 155 152 151 143 142 139 126 110 108 98
261 267 264 269 276 272 270 275 295 310 318 342 324 109 119 151 153 141 148 155 153 157 154 152 151 147 142 142 142 146 148 150 146 144 142 138 134 132 130 119 113 106 98 94
260 258 259 264 278 283 286 294 338 339 346 355 351 31 77 90 107 124 138 131 129 138 142 140 140 140 140 137 133 135 139 137 139 139 134 130 127 120 112 107 101 95 93 88
248 256 261 276 320 336 299 268 14 16 12 358 350 313 32 70 83 91 101 106 109 113 116 118 121 125 126 126 126 128 126 123 121 122 121 119 115 111 107 105 101 96 87 83
244 252 259 300 323 316 281 343 17 18 18 18 14 33 86 81 83 82 89 96 100 102 105 106 110 112 114 116 118 120 118 115 112 111 111 111 107 106 105 101 98 96 94 88
241 247 249 8 356 2 9 7 6 5 10 26 46 73 92 91 90 91 90 92 95 96 97 100 106 109 105 103 105 107 106 104 104 103 103 103 102 100 101 105 108 109 109 101
255 272 15 18 9 11 358 350 350 345 350 38 83 106 105 100 97 95 96 94 94 97 94 91 94 101 104 103 103 102 99 97 94 91 90 94 98 101 103 106 107 108 106 100
274 282 326 347 354 360 354 348 342 338 348 54 124 122 118 111 104 100 96 96 97 96 93 90 90 92 97 99 98 98 97 94 92 90 85 76 74 75 71 64 73 81 80 83
273 285 304 325 334 338 347 350 349 15 49 98 119 121 118 112 107 104 100 98 97 96 95 93 89 88 89 92 96 97 97 95 93 90 87 79 71 64 72 60 67 71 70 71
287 331 315 312 328 340 345 354 17 59 73 96 110 114 113 109 106 104 102 99 97 96 95 94 91 88 86 87 92 98 101 100 100 101 101 101 96 81 61 71 72 74 77 84
325 337 332 323 332 340 358 33 80 96 99 99 99 105 107 105 102 101 100 98 98 97 96 93 89 85 83 84 85 85 89 93 101 105 109 112 116 115 106 78 67 73 82 88
358 339 321 329 342 17 70 88 93 96 98 101 101 102 102 100 98 96 97 97 98 97 95 93 90 85 81 79 79 80 84 84 92 100 106 113 120 123 125 127 118 105 100 110
7 357 322 57 92 94 106 107 103 100 100 100 103 105 105 103 100 98 97 97 96 95 94 94 92 91 91 91 87 84 83 81 80 89 95 97 102 107 111 113 111 118 123 123
55 97 107 103 111 111 111 111 111 111 110 109 107 106 106 104 103 101 100 100 100 99 97 95 92 93 93 95 95 88 80 74 71 83 95 96 89 90 91 94 93 89 88 66
105 121 120 115 117 116 112 111 113 114 113 112 113 113 112 110 108 107 107 105 103 103 102 100 101 102 97 92 97 104 103 94 78 75 75 74 76 76 77 78 80 81 84 72
112 114 115 115 116 115 114 114 117 116 117 118 118 116 115 114 113 112 111 110 104 98 94 94 93 92 86 74 74 101 111 103 87 82 78 72 74 79 80 78 76 78 91 88
109 113 112 112 112 112 114 116 118 119 120 121 120 119 117 116 115 115 113 108 104 99 95 94 93 97 90 67 56 99 96 97 93 87 86 86 82 78 72 67 63 59 53 51
109 111 113 114 113 113 115 118 120 121 122 123 121 120 119 118 116 113 107 100 98 104 111 108 106 97 92 59 33 88 92 95 98 100 96 86 79 75 67 61 58 51 44 41
115 113 113 113 112 113 116 120 122 123 123 124 122 120 118 117 116 113 110 105 99 101 106 101 95 90 75 53 66 87 88 87 87 84 82 80 76 70 63 57 51 47 43 35
110 109 107 108 108 110 114 118 121 122 122 121 120 119 117 116 114 107 103 109 115 112 114 107 93 68 34 22 92 92 92 89 88 88 85 81 76 69 62 57 52 49 44 34
105 106 106 107 108 108 109 115 119 119 119 119 120 121 121 120 121 120 116 113 115 110 99 90 82 60 20 60 91 93 91 88 86 88 85 79 75 71 64 56 52 50 41 22
106 108 108 109 108 108 111 115 114 115 117 119 120 121 122 120 116 112 111 108 103 110 102 93 81 52 15 100 93 92 90 88 87 85 82 77 75 71 61 48 39 33 29 18
107 110 113 115 113 114 116 116 115 120 124 123 125 127 122 112 113 115 116 117 122 118 115 110 92 14 42 97 98 95 87 72 67 63 76 70 64 68 54 37 27 14 15 18
106 111 111 111 113 120 126 127 128 129 126 125 123 120 113 113 116 121 123 127 126 129 134 141 149 173 148 116 110 111 114 121 114 96 75 71 62 48 37 20 13 10 11 16
111 112 111 111 112 108 111 116 118 120 122 126 123 120 122 126 128 130 132 136 143 147 146 151 152 151 129 116 112 113 110 106 98 92 93 81 63 37 34 17 1 3 357 1
Height
1429 1426 1428 1435 1436 1433 1432 1428 1431 1429 1430 1431 1431 1432 1434 1436 1437 1441 1446 1450 1455 1460 1465 1469 1473 1477 1481 1484 1488 1491 1494 1497 1500 1503 1507 1510 1513 1516 1519 1522 1525 1528 1530 1532
1435 1428 1428 1434 1433 1433 1432 1427 1424 1422 1424 1421 1425 1429 1432 1434 1437 1441 1445 1450 1454 1459 1463 1468 1472 1476 1479 1483 1486 1490 1493 1496 1499 1503 1506 1509 1512 1515 1518 1521 1524 1526 1528 1530
1443 1433 1432 1438 1429 1429 1428 1422 1422 1425 1422 1420 1423 1427 1431 1434 1437 1441 1443 1448 1453 1457 1461 1466 1470 1474 1478 1482 1485 1489 1492 1495 1498 1502 1505 1507 1510 1513 1516 1519 1522 1524 1526 1528
1443 1444 1455 1432 1416 1416 1419 1418 1417 1418 1419 1421 1424 1427 1429 1433 1436 1439 1444 1447 1452 1456 1460 1465 1470 1473 1477 1481 1484 1488 1491 1494 1497 1500 1503 1506 1509 1512 1515 1518 1520 1522 1524 1526
1444 1445 1440 1425 1417 1417 1420 1423 1421 1421 1422 1424 1425 1427 1430 1433 1435 1438 1443 1446 1450 1454 1458 1463 1468 1472 1476 1480 1483 1487 1490 1494 1497 1499 1502 1506 1509 1511 1514 1516 1519 1521 1523 1524
1444 1449 1448 1430 1418 1417 1421 1429 1428 1427 1428 1429 1428 1431 1436 1436 1437 1438 1442 1446 1450 1454 1458 1462 1467 1471 1475 1479 1483 1486 1489 1492 1496 1499 1502 1505 1508 1510 1513 1516 1518 1520 1522 1523
1445 1446 1437 1425 1421 1422 1436 1439 1433 1432 1433 1434 1434 1437 1440 1439 1440 1442 1444 1447 1451 1455 1459 1463 1466 1470 1474 1478 1482 1486 1489 1493 1496 1499 1502 1505 1508 1511 1513 1515 1518 1520 1521 1523
1441 1446 1442 1430 1427 1433 1439 1437 1436 1436 1437 1438 1439 1439 1440 1442 1443 1446 1447 1450 1453 1457 1460 1464 1468 1471 1474 1479 1483 1486 1490 1493 1496 1500 1503 1506 1508 1511 1513 1516 1518 1520 1522 1523
1438 1440 1436 1435 1436 1437 1438 1438 1438 1438 1438 1439 1441 1442 1443 1445 1447 1450 1451 1453 1456 1459 1463 1467 1471 1473 1476 1481 1484 1488 1491 1494 1498 1501 1504 1507 1510 1512 1515 1517 1519 1521 1523 1524
1435 1434 1436 1437 1437 1438 1439 1439 1439 1439 1439 1439 1440 1443 1445 1448 1451 1453 1455 1458 1460 1463 1466 1471 1474 1477 1480 1484 1487 1490 1493 1497 1500 1503 1506 1509 1512 1514 1516 1518 1520 1522 1524 1525
1436 1436 1437 1438 1439 1440 1440 1440 1439 1439 1440 1440 1441 1444 1447 1450 1454 1456 1459 1462 1465 1467 1471 1475 1478 1481 1485 1488 1491 1493 1497 1500 1503 1506 1508 1511 1513 1515 1518 1520 1521 1523 1524 1526
1439 1439 1440 1441 1440 1440 1440 1440 1440 1441 1441 1443 1444 1446 1449 1453 1456 1460 1463 1466 1469 1472 1476 1480 1483 1485 1489 1492 1495 1498 1501 1504 1507 1509 1511 1514 1515 1517 1520 1521 1523 1525 1526 1526
1439 1439 1439 1439 1439 1440 1440 1440 1441 1442 1443 1445 1447 1450 1452 1456 1460 1463 1467 1469 1473 1477 1481 1485 1487 1490 1494 1496 1499 1502 1505 1508 1511 1513 1515 1517 1519 1520 1521 1524 1525 1526 1527 1527
1438 1438 1439 1439 1439 1439 1439 1441 1442 1443 1446 1448 1451 1454 1456 1460 1464 1468 1471 1475 1478 1482 1486 1489 1491 1495 1498 1500 1503 1506 1508 1511 1514 1516 1518 1520 1521 1522 1524 1525 1526 1527 1528 1528
1438 1438 1439 1439 1439 1440 1441 1442 1444 1447 1449 1452 1455 1458 1461 1465 1469 1473 1477 1480 1484 1487 1491 1493 1495 1499 1502 1504 1507 1509 1512 1514 1516 1519 1521 1522 1524 1525 1526 1527 1527 1528 1529 1529
1437 1438 1438 1439 1440 1442 1443 1445 1447 1451 1454 1456 1460 1464 1467 1471 1475 1479 1483 1486 1489 1492 1495 1497 1500 1503 1506 1508 1510 1513 1515 1517 1519 1521 1522 1524 1525 1526 1527 1528 1529 1530 1530 1530
1437 1438 1439 1440 1442 1444 1447 1448 1451 1454 1458 1461 1466 1470 1473 1477 1481 1485 1489 1492 1494 1497 1500 1502 1504 1507 1509 1512 1514 1516 1517 1519 1521 1522 1524 1525 1526 1527 1528 1529 1530 1530 1530 1530
1438 1439 1441 1442 1444 1447 1450 1453 1456 1460 1463 1467 1472 1475 1479 1482 1486 1490 1494 1496 1499 1502 1504 1507 1509 1511 1513 1515 1517 1519 1520 1521 1523 1524 1525 1526 1527 1528 1529 1530 1530 1531 1531 1531
1441 1443 1445 1447 1449 1451 1454 1457 1461 1465 1469 1473 1477 1480 1484 1488 1491 1494 1497 1500 1503 1505 1508 1510 1512 1514 1516 1518 1519 1521 1522 1523 1524 1525 1526 1528 1529 1530 1530 1531 1531 1531 1532 1531
1446 1447 1449 1452 1455 1457 1460 1463 1467 1471 1475 1478 1482 1485 1489 1493 1496 1499 1501 1504 1507 1509 1511 1513 1515 1517 1518 1520 1521 1522 1524 1525 1526 1527 1528 1530 1530 1531 1531 1532 1532 1532 1532 1532
1451 1452 1455 1457 1460 1463 1466 1469 1473 1476 1480 1483 1486 1490 1493 1497 1500 1503 1505 1507 1510 1512 1514 1516 1517 1518 1520 1521 1523 1524 1525 1526 1527 1529 1530 1530 1531 1531 1532 1532 1532 1532 1532 1532
1456 1458 1460 1463 1466 1469 1472 1475 1478 1481 1484 1488 1491 1494 1497 1501 1504 1506 1508 1511 1513 1515 1516 1518 1519 1520 1522 1523 1525 1526 1527 1528 1529 1530 1530 1531 1532 1532 1532 1533 1533 1533 1532 1532
1461 1463 1466 1469 1471 1474 1477 1480 1483 1486 1489 1492 1495 1498 1501 1504 1507 1509 1511 1514 1515 1516 1518 1519 1520 1522 1523 1525 1526 1527 1528 1529 1530 1531 1531 1532 1532 1533 1533 1533 1533 1533 1532 1531
1467 1469 1472 1474 1477 1479 1482 1486 1489 1491 1494 1497 1500 1502 1505 1507 1510 1511 1513 1515 1516 1518 1519 1520 1522 1523 1525 1527 1528 1528 1529 1530 1531 1532 1532 1533 1533 1533 1533 1533 1533 1533 1532 1531
1472 1475 1477 1480 1482 1485 1487 1490 1493 1495 1498 1501 1503 1506 1508 1510 1512 1513 1515 1516 1518 1519 1521 1522 1523 1525 1526 1528 1529 1529 1530 1531 1531 1532 1533 1533 1533 1533 1533 1533 1533 1532 1531 1530
1478 1480 1482 1485 1487 1490 1492 1494 1496 1499 1501 1504 1506 1508 1510 1512 1513 1515 1516 1518 1520 1521 1522 1523 1525 1526 1527 1528 1529 1530 1530 1531 1532 1532 1532 1533 1533 1533 1533 1532 1532 1531 1530 1529
1483 1485 1487 1489 1491 1493 1495 1497 1499 1502 1504 1506 1508 1510 1512 1513 1515 1517 1518 1520 1521 1523 1524 1525 1526 1527 1528 1529 1530 1530 1531 1531 1532 1532 1532 1532 1532 1532 1532 1531 1531 1530 1529 1528